PST,Max TemperatureF,Mean TemperatureF,Min TemperatureF,Max Dew PointF,MeanDew PointF,Min DewpointF,Max Humidity, Mean Humidity, Min Humidity, Max Sea Level PressureIn, Mean Sea Level PressureIn, Min Sea Level PressureIn, Max VisibilityMiles, Mean VisibilityMiles, Min VisibilityMiles, Max Wind SpeedMPH, Mean Wind SpeedMPH, Max Gust SpeedMPH,PrecipitationIn, CloudCover, Events, WindDirDegrees
2011-12-1,69,63,57,52,37,29,75,42,23,29.93,29.79,29.72,10,9,7,16,8,20,0.00,4,,344
2011-12-2,66,60,55,49,42,36,72,53,38,30.03,29.98,29.93,10,10,9,10,3,,0.00,3,,192
2011-12-3,66,60,53,49,42,23,72,55,31,30.19,30.06,29.99,10,9,7,10,6,,0.00,3,,127
2011-12-4,64,55,46,41,33,26,58,43,25,30.24,30.17,30.11,10,10,9,14,3,,0.00,2,,341
2011-12-5,64,48,32,40,30,16,100,42,19,30.26,30.19,30.13,10,10,10,12,3,,0.00,0,,9
2011-12-6,66,54,43,37,27,9,61,39,11,30.31,30.26,30.24,10,10,10,12,3,,0.00,0,,3
2011-12-7,68,56,43,44,33,12,69,49,12,30.22,30.13,30.07,10,10,10,13,2,,0.00,1,,330
2011-12-8,66,56,45,46,39,28,75,57,26,30.11,30.07,30.03,10,10,8,12,2,,0.00,3,,306
2011-12-9,68,50,32,48,41,32,100,61,32,30.15,30.10,30.06,10,10,8,12,2,,0.00,4,,328
2011-12-10,69,58,48,52,45,33,83,66,26,30.13,30.07,30.04,10,7,0,9,1,,0.00,3,Fog,324
2011-12-11,64,56,48,49,44,39,83,64,49,30.04,29.96,29.87,10,7,2,8,2,,0.00,6,,165
2011-12-12,62,58,53,50,47,45,80,71,60,29.87,29.80,29.75,10,7,3,20,7,25,0.42,6,Rain-Thunderstorm,129
2011-12-13,57,54,50,47,45,43,77,72,65,30.11,29.93,29.83,10,9,5,6,3,,0.32,6,Rain,99
2011-12-14,63,56,50,49,46,44,83,71,58,30.26,30.21,30.12,10,9,7,9,2,,0.00,4,Rain,220
2011-12-15,63,54,46,49,45,40,77,68,58,30.22,30.13,30.04,10,9,7,12,3,,0.04,4,Rain,335
2011-12-16,64,56,48,46,40,35,77,53,35,30.07,30.03,30.00,10,9,7,14,5,26,0.00,5,,50
2011-12-17,64,57,50,51,46,39,72,64,54,30.14,30.07,30.00,10,10,8,9,4,,0.00,5,,181
2011-12-18,64,59,54,52,49,46,77,69,60,30.18,30.12,30.08,10,9,8,8,2,,0.00,5,Thunderstorm,199
2011-12-19,61,56,52,50,48,45,77,69,59,30.11,30.05,30.01,10,9,7,10,4,,0.02,7,Rain,128
2011-12-20,68,60,53,51,49,46,80,69,49,30.02,29.98,29.93,10,8,7,14,4,,0.00,4,Rain,353
2011-12-21,64,56,48,52,46,39,77,65,48,30.10,30.03,29.99,10,9,7,7,2,,0.00,2,,147
2011-12-22,71,62,50,48,32,7,71,42,8,30.34,30.20,30.10,10,10,8,21,6,25,0.00,2,,49
2011-12-23,66,54,42,44,32,20,61,44,19,30.46,30.37,30.32,10,10,10,14,4,,0.00,1,,335
2011-12-24,71,58,45,40,32,17,68,45,14,30.36,30.32,30.26,10,10,9,12,2,,0.00,1,,346
2011-12-25,75,60,46,41,34,21,66,45,13,30.32,30.24,30.18,10,10,6,15,3,,0.00,0,,330
2011-12-26,72,60,48,41,33,23,64,42,16,30.25,30.20,30.18,10,10,8,7,2,,0.00,2,,331
2011-12-27,68,57,46,49,41,32,77,61,31,30.23,30.19,30.13,10,9,7,13,2,,0.00,3,,323
2011-12-28,78,62,46,51,42,27,77,59,17,30.22,30.15,30.08,10,9,7,15,4,,0.00,1,,337
2011-12-29,75,62,48,52,46,33,83,66,22,30.09,30.02,29.97,10,6,0,9,2,,0.00,3,Fog,325
2011-12-30,64,57,50,52,49,46,88,78,63,30.09,30.03,29.99,7,3,0,9,1,,0.00,4,Fog,270
2011-12-31,68,60,52,52,50,46,88,78,50,30.07,30.02,29.97,7,2,0,7,3,,0.00,5,Fog,334